Reflectivity
-20 -20 -20 -20 -20 -20 -20 -20 -20 -20 -20 -20 -20 -20 -20 -20 -20 -20 -20 -20 -20 -20 -20 -20 -20 -20 -20 -20 -20 -20 -20 -20
-20 -20 -20 -20 -20 -20 -20 -20 -20 -20 -20 -20 -20 -20 -20 -20 -20 -20 -20 -20 -20 -20 -20 -20 -20 -20 -20 -20 -20 -20 -20 22
-20 -20 -20 -20 -20 -20 -20 -20 -20 -20 -20 -20 -20 -20 -20 -20 -20 -20 -20 -20 -20 -20 -20 -20 -20 -20 -20 -20 -20 -20 -20 -20
-20 -20 -20 -20 -20 -20 -20 -20 -20 -20 -20 -20 -20 -20 -20 -20 -20 -20 -20 -20 -20 -20 -20 -20 -20 -20 -20 -20 -20 -20 -20 -20
-20 -20 -20 -20 -20 -20 -20 -20 -20 -20 -20 -20 -20 -20 -20 -20 -20 -20 -20 -20 -20 -20 -20 -20 -20 -20 -20 -20 -20 -20 -20 -20
-20 -17 -20 -18 6 -14 -20 -20 -20 -20 -20 -20 -20 -20 -20 -20 -20 -20 -20 -20 -20 -20 -20 -20 -20 -20 -20 -20 -20 -20 -20 -19
-20 -20 -20 -20 -20 -20 17 -5 37 5 -2 -19 -20 -20 -20 -20 -20 -20 -20 -20 -20 -20 -20 -20 -20 -20 -20 -20 -17 -20 -20 -20
-20 -20 -20 2 -0 3 19 37 10 -2 -15 -20 -19 -1 -18 -20 -20 -20 -20 -20 -20 -20 -20 -20 -20 -20 -20 -20 5 -19 -20 -20
-20 -20 -20 -20 -20 -20 -20 -20 32 38 40 2 -18 -18 -20 -20 -20 -20 -20 -20 -20 -20 -20 -20 -20 -20 -20 -20 -20 -20 -20 -20
-20 -20 -20 -20 -20 -20 -20 11 28 -19 30 29 13 17 -11 -20 2 -20 -20 -20 -20 -20 -20 -20 -20 -20 -20 -20 -20 -20 -20 -20
-20 -20 -20 -20 -20 -20 -20 -20 -20 25 -19 -20 16 40 32 25 -12 -9 -20 4 -20 -20 -20 -20 -20 -20 -20 -20 -20 -20 -20 -20
-20 -20 -20 -20 -20 -20 -20 -20 -20 -20 14 26 -20 -12 24 40 21 -3 12 7 -20 -20 -20 -20 -20 -20 -20 -20 -20 -20 -20 -20
-20 -20 -20 -20 -20 -20 -20 -20 -20 -20 -20 15 32 -20 23 35 -14 1 13 5 7 -19 -20 -20 -20 -20 -20 -20 -20 -20 -20 1
-20 -20 -20 -20 -20 -20 -20 -20 -20 -20 -20 -20 -20 -13 -10 -20 6 36 22 10 22 13 -11 -20 -20 -20 -20 -20 6 -18 -20 -20
-20 -20 -20 -20 -20 -20 -20 -20 -20 -20 -20 -20 -20 -20 -20 -20 -10 26 9 33 -8 -20 -10 -20 -20 -20 -20 -20 -14 -20 -20 -20
-20 -20 -20 -20 -20 -20 -20 -20 -20 -20 -20 -20 -20 -20 -20 -20 33 11 14 29 -3 -6 2 -20 24 -17 -20 -20 -20 -20 -20 -20
-20 -20 -20 -20 -20 -20 -20 -20 -20 -20 -20 -20 -20 -20 -20 -20 10 -12 35 36 4 34 -8 3 -16 16 -15 -20 -20 -19 -20 -20
-20 -20 -20 -20 -20 -20 -20 -20 -20 -20 -20 -20 -20 -20 -20 -20 -20 8 -8 35 21 7 29 -4 31 38 15 4 -11 -20 -20 -20
-20 -20 -20 -20 -20 -20 -20 -20 -20 -20 -20 -20 -20 -20 -20 -20 -20 -20 -15 -3 18 23 12 35 42 51 37 34 -11 -19 -20 -20
-20 -20 -11 -20 -20 -20 -20 -20 -20 -20 -20 -20 -20 -20 -20 -20 -20 -20 -17 -20 -3 3 28 33 32 42 39 19 6 11 -20 -20
Wind_Speed
5 5 6 10 11 9 10 11 12 12 12 12 12 12 12 12 11 10 9 10 9 8 7 7 8 7 7 6 7 6 6 5
8 7 5 5 6 10 10 11 11 11 13 13 13 12 12 12 11 10 9 9 10 11 10 7 6 6 6 5 6 7 5 4
7 7 7 6 5 7 9 11 11 12 11 12 11 7 9 11 11 10 9 9 10 11 10 10 7 6 5 5 3 3 4 4
5 6 7 7 7 5 6 7 6 7 8 9 7 8 9 10 11 13 11 9 9 10 10 9 7 3 2 4 2 3 2 4
6 6 6 6 5 5 4 4 4 5 7 8 6 6 7 7 6 7 7 9 5 6 5 4 5 3 4 4 4 4 3 3
7 6 4 5 3 4 6 6 6 5 6 10 7 5 5 6 6 8 8 7 8 7 5 6 7 6 5 5 6 4 3 2
4 7 6 6 5 4 5 5 7 8 8 10 9 6 6 6 6 7 7 8 8 8 8 7 8 7 5 6 6 6 5 3
16 13 13 7 4 5 5 4 5 7 9 11 13 11 7 7 6 8 9 9 9 9 9 9 8 7 7 7 7 5 6 6
16 15 15 13 11 10 5 6 7 6 7 12 16 13 13 10 9 7 9 9 12 10 10 8 6 6 7 7 5 6 4 6
14 14 16 17 14 9 7 7 7 6 10 5 13 14 14 10 10 9 9 9 10 9 10 9 9 7 5 6 4 4 5 6
15 15 16 16 16 13 12 10 7 8 7 8 10 14 13 7 9 8 8 8 8 11 9 11 9 8 6 7 6 5 6 4
15 13 14 14 11 12 11 11 10 10 11 9 12 12 12 15 5 5 7 5 7 10 13 9 9 10 8 7 7 6 5 5
17 18 17 14 11 12 12 12 12 11 9 16 12 12 16 12 8 3 7 11 9 10 9 13 7 8 5 2 2 7 8 6
17 16 16 14 11 10 10 11 10 12 12 12 13 13 11 11 7 14 11 11 11 10 13 9 6 10 7 5 4 2 7 8
16 17 16 14 14 12 11 11 11 10 10 11 12 14 15 13 18 18 14 13 11 14 13 16 12 9 10 7 4 6 4 4
15 15 16 14 15 13 16 12 13 11 12 12 14 15 15 14 19 18 20 15 16 15 12 12 12 13 7 10 3 6 5 2
14 15 15 15 15 14 12 15 12 12 13 17 16 15 14 15 13 19 19 14 16 17 17 15 13 12 14 12 8 2 3 4
15 15 15 16 16 15 15 16 16 14 13 14 13 12 11 15 14 11 17 16 16 15 20 20 16 9 9 10 13 12 8 4
14 16 17 16 16 16 16 16 16 17 15 13 17 13 12 12 13 12 11 15 16 15 14 12 10 6 11 10 10 11 8 7
16 16 17 17 17 17 15 16 11 11 14 13 14 14 14 16 16 16 15 13 13 14 11 9 13 19 17 13 11 10 8 7
Wind_Direction
140 142 159 157 156 162 164 173 171 168 167 165 163 161 160 162 166 171 168 163 153 153 159 170 177 183 182 167 139 121 141 188
161 160 156 158 162 163 171 175 175 178 171 173 167 165 164 166 169 179 178 171 158 157 161 173 190 193 191 197 147 147 191 185
169 160 168 167 183 174 170 178 184 181 179 175 162 168 171 170 172 181 180 174 161 162 165 170 189 212 204 216 173 202 208 176
156 161 178 168 183 169 173 181 182 183 174 183 182 174 174 175 175 179 178 170 168 166 169 170 166 180 226 227 199 212 219 192
178 177 187 175 200 171 186 184 181 182 181 173 195 190 184 181 182 176 173 168 169 160 164 170 183 187 193 220 231 208 181 203
178 176 195 265 199 186 190 188 183 184 186 175 188 204 194 196 186 176 172 168 171 169 173 185 187 202 199 208 225 225 155 179
194 170 185 215 263 224 227 211 202 193 185 184 180 199 202 192 188 178 178 168 177 175 173 188 205 195 200 205 228 217 148 160
31 27 2 331 274 257 250 240 210 204 196 198 189 189 193 196 185 185 182 179 180 179 180 185 203 193 182 196 211 213 158 172
22 15 19 15 6 341 297 266 250 229 214 212 194 189 200 192 191 183 187 185 186 184 182 182 190 211 184 181 191 212 196 164
22 16 11 5 356 343 332 321 287 267 252 224 219 203 198 192 195 197 182 189 182 187 185 182 187 190 202 161 188 208 209 178
22 15 7 360 352 345 341 329 307 282 260 252 239 224 215 198 196 204 180 193 184 186 188 185 187 185 194 186 174 200 207 199
16 9 6 359 352 344 338 339 341 334 302 253 248 245 219 227 199 188 203 197 185 193 182 185 185 186 185 198 181 186 195 193
13 8 5 2 355 348 338 327 321 315 307 315 277 230 219 227 203 197 215 227 201 191 182 178 181 173 148 186 224 188 198 197
9 6 2 357 345 332 324 317 309 308 304 296 283 289 231 215 204 236 218 224 220 195 190 184 175 176 175 133 185 236 224 207
3 358 353 346 341 330 323 313 310 313 314 315 314 319 295 237 212 222 213 222 218 211 204 187 182 185 183 156 160 205 138 177
354 350 341 332 336 332 322 310 304 304 302 302 310 311 306 300 242 223 215 215 216 215 207 205 188 188 186 205 175 146 171 166
349 337 330 330 320 318 314 303 300 302 296 300 299 301 299 295 298 247 230 224 213 211 208 207 197 191 195 187 201 158 141 144
339 331 327 321 314 310 302 295 298 296 296 297 297 294 292 289 289 288 246 231 229 220 218 205 193 201 198 201 201 199 194 161
334 331 324 320 311 305 298 292 290 289 291 291 291 291 287 289 295 286 277 243 238 233 229 207 208 179 219 209 211 215 208 205
337 332 326 321 315 305 297 291 282 279 276 274 276 278 285 293 296 298 288 266 246 244 241 201 184 207 215 231 221 216 199 198